FENGYUN 1C DEB, 35243

Orbit data source: Space-Track

FENGYUN 1C DEB, 35243 is space debris in SSO originally from a launch on Mon, 10 May 1999 UTC launched from the Taiyaun Space Center, China (TSC). Fengyun 1C debris stems from the Chinese weather satellite Fengyun-1C, which was intentionally destroyed by a Chinese anti-satellite missile in 2007. This event dramatically increased the amount of space debris, with thousands of trackable fragments posing hazards to satellites and human spaceflight. The Fengyun 1C debris cloud has become a focal point in discussions about space sustainability and the need for international regulations to prevent the creation of new debris.

Loading next visibility...
Identifier
35243, 1999-025DRB
Orbit
SSO
Country
Flag of CNCN / PRC
Related business
Manufacturer
Unknown
Mission
Spacecraft
Bus & Motor
Unknown
Mass
Unknown
Launch date (UTC)
1999-05-10 (27 years ago)
Launch vehicle
Unknown
Launch site
Taiyaun Space Center, China (TSC)
Object type
Payload
Rocket body
Debris
Shape & HBR
Unknown shape, 0.1 m
Radar Cross Section
Medium (>0.1 m² and <1 m²)

Expand to show TLE details & history
Last TLE update: 6 hours ago

TLE from 6 hours ago
0 FENGYUN 1C DEB
1 35243U 99025DRB 26166.53944659  .00013892  00000-0  12249-2 0  9991
2 35243  98.8728 273.3717 0054311  22.8039 337.5573 14.95425559937550
Epoch: 2026-06-15T12:56Z
TLE epoch observation values (Epoch: 2026-06-15T12:56:48.185Z)
Latitude
-0°
Longitude
175.34655°
Altitude
549.153 km
Speed
7.606 km/s
True Right ascension
18h 13m 29s
True Declination
0° 00' 00"
Sunlit
Object was in full shadow at epoch
Visualization orbit readout
Latitude
Unknown
Longitude
Unknown
Altitude
Unknown
Speed
Unknown
Apparent Right ascension
Unknown
Apparent Declination
Unknown
Sunlit
N/A
Visualization observer readout
Local Sidereal Time
05:09:12
Azimuth
Unknown
Elevation
Unknown
Doppler factor
Unknown
Orbital elements
Apogee altitude
615.899 km
Perigee altitude
540.339 km
Semi-major axis
6,956.256 km
Eccentricity
0.00543
Inclination
98.8728°
RAAN
273.3717°
Arg. of periapsis
22.8039°
True anomaly
337.31821°
Mean anomaly
337.5573°
Eccentric anomaly
337.43791°
Mean motion
3.74093 °/min
Orbital period
96.23 mins
BSTAR
0.0012249
Loading maneuver chart data...
Computing Atmospheric mass density...
Loading historical data...
Loading historical data...
Loading historical data...
Loading historical data...
Loading historical data...
Loading historical data...
Loading historical data...

Documentation

Showing up to 5 results
|